www.pogodaiklimat.ru

Погода и климат >> Архив погоды >> Перу >> Puerto Maldonado


ПОГОДА в Puerto Maldonado

  • Прогноз погоды в Puerto Maldonado
  • Монитор погоды в Puerto Maldonado
  • Климат города

АРХИВ ПОГОДЫ в Puerto Maldonado

Время (UTC), дата Ветер
(напр.,м/с)
 
Видим.   Явления Облачность Т
(С)
Тd
(С)
f
(%)
Тe
(С)
Тes
(С)
Комфортность P
(гПа)
Po
(гПа)
Тmin
(С)
Tmax
(С)
R
(мм)
R24
(мм)
S
(см)
12 13.11 нст 1 1000 м местами туман поземный 5/0
[Ac trans]
+24.1 +22.9 93 +32 +35 очень
душно
1009.0 986.2 +20.5
15 13.11 нст 3 10 км 9/1 300 м
[Cu hum Ac trans]
+29.5 +21.1 61 +37 +44 очень
душно
1009.7 987.3
18 13.11 нст 3 10 км 8/3 300 м
[Cu hum Ac lent]
+32.7 +21.2 51 +40 +46 очень
душно
1006.6 984.5
21 13.11 нст 1 10 км 1/1 450 м
[Cu hum]
+33.3 +20.4 47 +40 +45 очень
душно
1002.6 980.6
00 14.11 штиль 0 10 км ясно +24.7 +23.0 90 +33 +33 очень
душно
1004.8 982.0 +34.1
12 14.11 нст 1 10 км 4/0 2000 м
[As trans]
+25.3 +23.0 87 +34 +37 очень
душно
1007.5 984.8 +20.8
15 14.11 нст 2 10 км ясно +30.9 +20.1 53 +37 +57 опасность
солнечного
удара
1007.6 985.4
18 14.11 нст 2 10 км 1/1 450 м
[Cu hum]
+34.7 +21.0 45 +42 +61 опасность
перегрева
1004.2 982.3
21 14.11 нст 2 10 км ясно +34.3 +22.6 51 +44 +48 опасность
перегрева
1000.9 979.0
12 15.11 нст 3 10 км 1/1 900 м
[Sc]
+26.9 +23.8 83 +37 +40 очень
душно
1007.2 984.7 +22.8
15 15.11 нст 3 10 км 6/6 360 м
[Cu hum]
+30.6 +24.2 69 +43 +49 опасность
перегрева
1007.4 985.2
18 15.11 нст 1 10 км 6/6 360 м
[Cu hum]
+32.2 +24.7 65 +45 +54 опасность
перегрева
1004.5 982.4
21 15.11 нст 2 10 км 3/3 360 м
[Cu hum]
+34.2 +24.1 56 +46 +49 опасность
перегрева
1001.3 979.4
12 16.11 нст 2 10 км ясно +27.5 +23.4 78 +37 +41 очень
душно
1007.2 984.8 +23.2
15 16.11 нст 3 10 км 3/3 400 м
[Cu hum]
+31.0 +24.1 67 +43 +54 опасность
перегрева
1007.1 984.9
18 16.11 нст 2 10 км {дождь} 6/6 360 м
[Cu med, cong]
+27.6 +24.7 84 +39 +47 очень
душно
1005.0 982.6
21 16.11 нст 2 10 км {дождь} 9/0
[As trans]
+27.1 +25.0 88 +39 +41 очень
душно
1002.5 980.1
15 17.11 нст 3 10 км 8/8 300 м
[Cu med, cong]
+31.5 +24.8 68 +45 +48 опасность
перегрева
1005.9 983.8
18 17.11 нст 3 8000 м слабый дождь {гроза} 10/9 300 м
[Cu hum Ac trans]
+23.8 +23.6 99 +32 +33 очень
душно
1005.1 982.4 31
21 17.11 С 2 10 км {дождь} 10/1 1200 м
[Sc Ac trans]
+24.2 +23.5 96 +33 +34 очень
душно
1002.2 979.6
12 18.11 нст 2 10 км 10/10 540 м
[Frnb]
+24.6 +22.9 90 +33 +33 очень
душно
1004.6 982.0 +23.2 34
15 18.11 нст 2 10 км 9/9 750 м
[Frnb]
+27.8 +23.3 77 +38 +40 очень
душно
1005.4 983.0
18 18.11 нст 2 10 км 6/6 600 м
[Cu hum]
+32.2 +25.5 68 +47 +54 опасность
перегрева
1003.0 980.9
21 18.11 нст 2 10 км зарница {дождь, ливн. осадки} 10/5 600 м
[Cu hum As trans]
+25.3 +24.1 93 +35 +36 очень
душно
1000.5 978.0
00 19.11 штиль 0 10 км {дождь, ливн. осадки} 8/1 300 м
[Cu hum As trans]
+24.1 +23.8 98 +33 +33 очень
душно
1001.6 979.0 +32.7 8
12 19.11 штиль 0 10 км 10/8 750 м
[Sc As trans]
+24.9 +23.4 91 +33 +34 очень
душно
1005.5 982.9 +22.2 17
15 19.11 нст 2 10 км 4/4 300 м
[Cu hum]
+28.7 +24.6 79 +41 +53 опасность
перегрева
1006.0 983.6
18 19.11 нст 1 6000 м гроза, ливневой дождь 10/4 300 м
[Cu med, cong As trans]
+22.5 +22.0 97 +30 +35 очень
душно
1005.2 982.4 4
21 19.11 Ю 2 8000 м слабый дождь 10/10 300 м
[Frnb As trans]
+23.6 +23.1 97 +31 +31 очень
душно
1003.3 980.6
00 20.11 нст 2 7000 м {гроза, дождь} 10/8 300 м
[Frnb As trans]
+23.1 +22.8 98 +32 +32 очень
душно
1004.0 981.2 +30.4 11

 

Местоположение метеостанции Puerto Maldonado (Перу): широта -12.60 долгота -69.21 высота над уровнем моря 201 м.

В архиве по умолчанию представлена погода в Puerto Maldonado за последнюю неделю. Архивные данные за месяц целиком и за предыдущие месяцы, начиная с января 2011 года, Вы можете получить, выбрав интересующий диапазон дат из раскрывающегося списка и нажав кнопку "Ввод!".

Внимание! Время в таблицах - всемирное. Для получения местного времени необходимо прибавить поправку, которая в Puerto Maldonado равна -5 ч.

Смотрите также архив погоды в соседних городах и на ближайших метеорологических станциях:

Погода в Cobija (Боливия) (181 км)
Погода в Epitaciolandia (Бразилия) (183 км)
Погода в Rurrenabaque (Боливия) (273 км)
Погода в Reyes (Боливия) (275 км)
Погода в Santa Rosa (Боливия) (305 км)
Погода в Cuzco (Перу) (312 км)
Погода в Rio Branco (Бразилия) (315 км)
Погода в Rio Branco (Бразилия) (328 км)
Погода в Juliaca (Перу) (336 км)
Погода в San Borja (Боливия) (357 км)

Пояснения к столбцам:

Ветер - указаны скорость ветра в м/с - средняя за 10 мин, порывы в срок и между сроками (в фигурных скобках) и направление, откуда дует ветер: С - северный, СВ - северо-восточный, В - восточный, ЮВ - юго-восточный, Ю - южный, ЮЗ - юго-западный, З - западный, СЗ - северо-западный.
Видимость - горизонтальная дальность видимости в метрах или километрах. При видимости от 1 до 10 км при отсутствии осадков обычно наблюдается дымка, при ухудшении видимости до 1 км и менее - туман. В сухую погоду видимость может ухудшаться дымом, пылью или мглою.
Явления - указаны атмосферные явления, наблюдавшиеся в срок или в последний час перед сроком; фигурными скобками обозначены явления, наблюдавшиеся между сроками (за 1-3 часа до срока); квадратными скобками обозначены град или гололедные отложения с указанием их диаметра в мм.
Облачность - указаны через наклонную черту общая и нижняя облачность в баллах и высота нижней границы облаков в метрах; квадратными скобками обозначены формы облаков: Ci - перистые, Cs - перисто-слоистые, Cc - перисто-кучевые, Ac - высококучевые, As - высокослоистые, Sc - слоисто-кучевые, Ns - слоисто-дождевые, Cu - кучевые, Cb - кучево-дождевые. Подробнее классификацию облаков см. в Атласе облаков (PDF).
T - Температура воздуха - температура, измеренная на высоте 2 м над землей.
Td - Температура точки росы - температура, при понижении до которой содержащийся в воздухе водяной пар достигнет насыщения.
f - Относительная влажность воздуха - влажноcть воздуха, измеренная на высоте 2 м над землей.
Te - Эффективная температура - температура, которую ощущает одетый по сезону человек в тени. Характеристика душности погоды. При расчете учитывается влияние влажности воздуха и скорости ветра на теплоощущения человека.
Tes - Эффективная температура на солнце - температура, которую ощущает человек, с поправкой на солнечный нагрев. Характеристика знойности погоды. Зависит от высоты солнца над горизонтом, облачности и скорости ветра. Ночью, в пасмурную погоду, а также при ветре 12 м/с и более поправка равна нулю.
P - Атмосферное давление - приведенное к уровню моря атмосферное давление.
Po - Атмосферное давление - измеренное на уровне метеостанции атмосферное давление.
Tmin - Минимальная температура - минимум температуры воздуха на высоте 2 м над землей.
Tmax - Максимальная температура - максимум температуры воздуха на высоте 2 м над землей.
R - Количество осадков - Количество выпавших осадков за период времени, мм. При наведении курсора мыши на число - период времени, за который выпало указанное количество осадков.
R24 - Количество осадков - Количество выпавших осадков за 24 часа, мм.
S - Снежный покров - Высота снежного покрова, см. При наведении курсора мыши на число - состояние снежного покрова и степень покрытия местности в баллах.